| time (UTC) | temp C | wind direction | speed KPH | gust KPH | rain 1hr cm | rain 24hr cm | rain mn cm | humidity % | barometer mb |
| 20260502151607 | 20 | 130 | 0.0 | 9.7 | 0.00 | 0.58 | 0.58 | 61 | 1017.0 |
| 20260502123037 | 18 | 104 | 0.0 | 8.0 | 0.00 | 0.58 | 0.58 | 70 | 1018.9 |
| 20260502121538 | 18 | 53 | 0.0 | 9.7 | 0.00 | 0.58 | 0.58 | 70 | 1019.1 |
| 20260502114530 | 17 | 100 | 0.0 | 12.9 | 0.00 | 0.58 | 0.58 | 72 | 1019.3 |
| 20260502113026 | 17 | 167 | 0.0 | 12.9 | 0.00 | 0.58 | 0.58 | 74 | 1019.6 |
| 20260502111525 | 17 | 103 | 0.0 | 6.4 | 0.00 | 0.58 | 0.58 | 75 | 1019.9 |
| 20260502110021 | 17 | 160 | 0.0 | 8.0 | 0.00 | 0.58 | 0.58 | 76 | 1020.0 |
| 20260502104518 | 16 | 141 | 0.0 | 9.7 | 0.00 | 0.58 | 0.58 | 83 | 1020.1 |
| 20260502103020 | 15 | 118 | 0.0 | 9.7 | 0.00 | 0.58 | 0.58 | 86 | 1020.4 |
| 20260502101513 | 15 | 138 | 0.0 | 9.7 | 0.00 | 0.58 | 0.58 | 89 | 1020.7 |
| 20260502091509 | 13 | 113 | 0.0 | 3.2 | 0.00 | 0.58 | 0.58 | 93 | 1020.5 |
| 20260502071501 | 13 | 106 | 0.0 | 6.4 | 0.25 | 0.33 | 0.33 | 88 | 1020.6 |
| 20260502070101 | 14 | 169 | 0.0 | 12.9 | 0.05 | 0.08 | 0.08 | 87 | 1020.6 |
| 20260502064603 | 13 | 92 | 0.0 | 14.5 | 0.08 | 0.08 | 0.08 | 88 | 1020.4 |
| 20260502063059 | 13 | 139 | 0.0 | 11.3 | 0.08 | 0.08 | 0.08 | 88 | 1020.4 |
| 20260502061557 | 13 | 99 | 0.0 | 11.3 | 0.08 | 0.08 | 0.08 | 87 | 1020.4 |
| 20260502060056 | 14 | 99 | 0.0 | 9.7 | 0.05 | 0.05 | 0.05 | 85 | 1020.4 |
| 20260502054558 | 14 | 124 | 0.0 | 9.7 | 0.00 | 0.00 | 0.00 | 83 | 1020.3 |
| 20260502053054 | 14 | 120 | 1.6 | 16.1 | 0.00 | 0.00 | 0.00 | 83 | 1020.1 |
| 20260502051554 | 14 | 146 | 0.0 | 12.9 | 0.00 | 0.00 | 0.00 | 83 | 1020.2 |
| 20260502050052 | 14 | 101 | 0.0 | 9.7 | 0.00 | 0.00 | 0.00 | 82 | 1020.1 |
| 20260502044552 | 15 | 107 | 0.0 | 11.3 | 0.00 | 0.00 | 0.00 | 80 | 1020.0 |
| 20260502043053 | 15 | 172 | 0.0 | 6.4 | 0.00 | 0.00 | 0.00 | 80 | 1019.9 |
| 20260502041549 | 15 | 113 | 0.0 | 11.3 | 0.00 | 0.00 | 0.00 | 81 | 1020.0 |
| 20260502040058 | 15 | 121 | 0.0 | 0.0 | 0.00 | 0.00 | 0.00 | 81 | 1020.1 |
| 20260502034547 | 15 | 103 | 0.0 | 3.2 | 0.00 | 0.00 | 0.00 | 80 | 1020.2 |
| 20260502033048 | 15 | 107 | 0.0 | 0.0 | 0.00 | 0.00 | 0.00 | 80 | 1020.3 |
| 20260502031549 | 15 | 115 | 0.0 | 0.0 | 0.00 | 0.00 | 0.00 | 81 | 1020.3 |
| 20260502030045 | 15 | 137 | 0.0 | 6.4 | 0.00 | 0.00 | 0.00 | 81 | 1020.4 |
| 20260502024545 | 15 | 104 | 0.0 | 0.0 | 0.00 | 0.00 | 0.00 | 81 | 1020.3 |
| 20260502023051 | 15 | 130 | 0.0 | 6.4 | 0.00 | 0.00 | 0.00 | 81 | 1020.3 |
| 20260502021544 | 15 | 126 | 0.0 | 0.0 | 0.00 | 0.00 | 0.00 | 81 | 1020.5 |
| 20260502020056 | 14 | 113 | 0.0 | 6.4 | 0.00 | 0.00 | 0.00 | 81 | 1020.6 |
| 20260502014549 | 14 | 118 | 0.0 | 9.7 | 0.00 | 0.00 | 0.00 | 80 | 1020.5 |
| 20260502013040 | 14 | 134 | 0.0 | 8.0 | 0.00 | 0.00 | 0.00 | 80 | 1020.6 |
| 20260502011539 | 14 | 105 | 0.0 | 6.4 | 0.00 | 0.00 | 0.00 | 80 | 1020.7 |
| 20260502010036 | 13 | 101 | 0.0 | 6.4 | 0.00 | 0.00 | 0.00 | 80 | 1020.9 |
| 20260502004536 | 14 | 107 | 0.0 | 6.4 | 0.00 | 0.00 | 0.00 | 79 | 1021.0 |
| 20260502003035 | 14 | 121 | 0.0 | 9.7 | 0.00 | 0.00 | 0.00 | 79 | 1021.0 |
| 20260502001554 | 14 | 113 | 0.0 | 0.0 | 0.00 | 0.00 | 0.00 | 79 | 1021.2 |
| 20260502000034 | 14 | 57 | 0.0 | 6.4 | 0.00 | 0.00 | 0.00 | 79 | 1021.2 |
| 20260501234529 | 14 | 119 | 0.0 | 12.9 | 0.00 | 0.00 | 0.00 | 80 | 1021.1 |
| 20260501233028 | 14 | 110 | 0.0 | 12.9 | 0.00 | 0.00 | 0.00 | 80 | 1021.5 |
| 20260501231526 | 14 | 155 | 0.0 | 0.0 | 0.00 | 0.00 | 0.00 | 80 | 1021.7 |
| 20260501230024 | 14 | 111 | 0.0 | 0.0 | 0.00 | 0.00 | 0.00 | 79 | 1022.0 |
| 20260501224522 | 15 | 138 | 0.0 | 1.6 | 0.00 | 0.00 | 0.00 | 77 | 1021.9 |
| 20260501223022 | 15 | 119 | 0.0 | 4.8 | 0.00 | 0.00 | 0.00 | 76 | 1021.8 |
| 20260501221518 | 15 | 135 | 0.0 | 14.5 | 0.00 | 0.00 | 0.00 | 74 | 1021.7 |
| 20260501220013 | 15 | 117 | 0.0 | 3.2 | 0.00 | 0.00 | 0.00 | 74 | 1021.8 |
| 20260501214514 | 15 | 132 | 0.0 | 0.0 | 0.00 | 0.00 | 0.00 | 74 | 1021.8 |
| 20260501213012 | 15 | 146 | 0.0 | 0.0 | 0.00 | 0.00 | 0.00 | 73 | 1021.7 |
| 20260501211511 | 15 | 195 | 0.0 | 0.0 | 0.00 | 0.00 | 0.00 | 73 | 1021.6 |
| 20260501210024 | 16 | 203 | 0.0 | 0.0 | 0.00 | 0.00 | 0.00 | 72 | 1021.6 |
| 20260501204510 | 16 | 203 | 0.0 | 0.0 | 0.00 | 0.00 | 0.00 | 73 | 1021.6 |
| 20260501203008 | 16 | 203 | 0.0 | 0.0 | 0.00 | 0.00 | 0.00 | 72 | 1021.5 |
| 20260501201506 | 16 | 203 | 0.0 | 0.0 | 0.00 | 0.00 | 0.00 | 71 | 1021.2 |
| 20260501200005 | 16 | 203 | 0.0 | 0.0 | 0.00 | 0.00 | 0.00 | 71 | 1020.9 |
| 20260501194504 | 17 | 203 | 0.0 | 0.0 | 0.00 | 0.00 | 0.00 | 70 | 1020.8 |
| 20260501193100 | 17 | 215 | 0.0 | 0.0 | 0.00 | 0.00 | 0.00 | 70 | 1020.5 |
| 20260501191559 | 17 | 186 | 0.0 | 0.0 | 0.00 | 0.00 | 0.00 | 69 | 1020.3 |
| 20260501184556 | 18 | 221 | 0.0 | 0.0 | 0.00 | 0.00 | 0.00 | 67 | 1020.1 |
| 20260501183054 | 18 | 187 | 0.0 | 0.0 | 0.00 | 0.00 | 0.00 | 64 | 1019.9 |
| 20260501181553 | 19 | 153 | 0.0 | 4.8 | 0.00 | 0.00 | 0.00 | 60 | 1019.8 |
| 20260501180052 | 20 | 187 | 0.0 | 4.8 | 0.00 | 0.00 | 0.00 | 59 | 1019.5 |
| 20260501174552 | 20 | 164 | 0.0 | 3.2 | 0.00 | 0.00 | 0.00 | 58 | 1019.4 |
| 20260501173101 | 20 | 192 | 0.0 | 8.0 | 0.00 | 0.00 | 0.00 | 57 | 1019.2 |
| 20260501171550 | 21 | 218 | 0.0 | 8.0 | 0.00 | 0.00 | 0.00 | 57 | 1019.1 |
| 20260501170052 | 21 | 178 | 0.0 | 8.0 | 0.00 | 0.00 | 0.00 | 56 | 1018.9 |
| 20260501164557 | 21 | 173 | 0.0 | 0.0 | 0.00 | 0.00 | 0.00 | 55 | 1018.7 |
| 20260501163049 | 22 | 172 | 0.0 | 8.0 | 0.00 | 0.00 | 0.00 | 54 | 1018.7 |
| 20260501161600 | 22 | 185 | 0.0 | 8.0 | 0.00 | 0.00 | 0.00 | 53 | 1018.6 |